Wind_Speed
32 33 33 33 33 33 34 35 35 36 36 37 37 37 38 39 40 40 41 43 43 44 45 45 46 47 48 49 50 50 51 51 52 52 51 50 49 46 44 43 43 44 45 46 48 49 50 51 51 51 50 49 48 46 47 48 49 48 48 48 48 48 49 49 47 46 44 43 42 41 40 41 42 43 44 46 48 50 53 55 56 62 69 67 61
34 35 36 36 36 36 36 37 38 38 39 39 39 39 40 41 42 42 43 44 45 46 47 47 48 48 49 50 51 52 52 52 53 52 52 51 50 48 45 43 43 44 46 47 48 49 50 51 52 53 52 49 47 46 47 50 51 50 50 51 50 50 49 48 46 45 43 42 41 41 42 44 44 45 47 49 50 53 56 59 61 67 71 68 64
36 38 38 39 39 39 39 39 40 40 41 41 41 41 41 42 44 44 45 46 47 48 49 49 50 50 51 51 52 53 53 53 53 53 53 51 49 48 47 44 43 44 46 48 50 49 50 52 54 54 52 48 46 46 49 53 53 51 52 53 51 50 49 47 45 44 43 42 42 43 45 47 48 49 51 52 53 54 57 61 65 71 74 71 67
39 40 41 41 41 42 42 42 42 42 43 43 42 43 43 44 45 47 47 48 49 49 50 51 51 51 52 52 53 54 54 54 54 54 53 51 50 49 48 46 45 46 48 50 50 49 50 54 56 55 51 47 46 48 52 55 54 53 54 53 51 50 48 45 44 43 44 44 45 47 48 50 52 53 54 55 57 57 58 63 68 75 77 73 69
42 42 43 44 44 44 45 45 45 45 45 45 44 45 45 46 47 48 49 50 51 51 52 52 53 53 53 53 54 54 55 54 55 55 53 51 50 49 48 49 50 51 51 52 51 49 51 55 57 55 51 47 48 51 54 56 54 53 54 52 51 51 49 45 43 43 45 47 49 51 52 54 56 57 57 59 61 61 63 66 71 77 79 75 71
45 45 45 46 46 47 48 48 47 47 47 46 46 47 48 48 48 49 50 52 53 54 54 53 54 53 53 54 55 55 55 55 54 55 54 52 50 50 50 52 54 53 51 51 52 51 53 56 58 57 53 51 52 54 55 56 54 53 53 51 50 51 49 46 44 45 47 50 53 55 57 58 60 61 62 63 64 65 67 69 74 80 81 78 74
47 47 47 48 49 50 50 50 50 49 49 48 48 49 50 51 51 50 51 53 55 56 56 55 55 54 54 54 55 56 57 56 55 56 56 54 51 52 53 53 54 53 52 52 54 55 56 57 59 59 56 55 56 56 57 56 53 53 54 52 50 49 48 46 45 47 50 54 57 60 61 62 64 65 66 67 67 68 70 72 77 83 85 82 78
49 50 50 51 52 52 53 52 52 51 50 50 50 51 52 53 53 52 52 54 56 58 58 57 56 56 55 55 56 57 57 57 56 56 57 56 54 54 54 53 53 52 52 54 56 57 58 59 61 60 57 57 58 58 58 54 51 53 55 53 50 49 48 47 46 49 54 58 61 63 65 67 68 69 71 71 71 72 73 75 80 87 89 87 84
52 53 53 53 54 55 55 54 53 52 52 52 52 53 54 55 56 56 55 55 57 58 59 59 58 57 56 55 56 57 57 56 55 55 57 57 56 55 54 53 54 53 53 55 56 58 61 62 62 61 60 59 57 57 58 55 51 53 55 54 51 50 49 48 49 51 57 62 65 66 68 70 72 73 74 74 74 76 77 78 83 89 90 89 87
54 56 56 56 56 57 57 56 55 54 54 54 54 55 55 57 58 58 57 58 59 60 61 61 60 59 57 56 57 58 57 55 54 55 56 57 56 56 55 56 56 54 54 57 59 61 63 63 62 62 62 59 55 56 59 56 53 54 55 54 52 49 49 50 51 53 60 65 68 70 72 74 75 77 78 78 79 80 81 82 86 91 92 90 88
57 59 59 59 59 59 59 57 56 56 56 56 56 57 57 58 59 58 59 62 62 62 63 63 63 62 61 59 59 59 58 57 56 56 57 57 57 58 58 57 55 53 54 58 60 61 62 62 62 62 61 59 57 58 58 55 54 56 57 55 53 50 50 52 54 57 64 68 71 74 76 77 79 81 82 83 85 85 85 86 88 92 95 93 90
60 60 61 62 62 61 61 59 58 58 58 59 59 59 59 60 60 60 62 64 64 64 64 64 65 65 64 63 63 62 62 60 58 58 58 57 58 59 57 55 53 52 55 59 61 63 63 63 63 63 62 60 57 57 57 55 56 58 60 59 57 53 50 52 56 61 67 71 74 77 80 81 83 85 86 88 89 89 89 89 90 94 98 96 92
61 62 63 64 63 63 63 61 61 60 60 61 62 62 62 62 62 63 64 65 65 66 66 66 66 66 66 66 65 65 64 62 60 60 58 57 59 58 54 53 52 53 57 62 65 65 65 65 66 65 62 59 58 59 59 58 59 61 61 61 59 54 51 53 57 63 70 74 77 80 82 84 85 87 89 89 89 90 90 89 92 98 100 97 94
62 64 64 64 64 65 65 64 63 63 62 63 64 64 64 64 65 65 66 66 67 68 68 68 67 67 66 66 66 66 66 64 62 61 58 58 58 53 50 51 51 53 60 67 67 66 66 67 67 65 62 60 59 60 61 62 63 63 62 61 58 54 54 56 60 66 73 76 79 81 84 85 86 87 89 89 89 90 90 92 97 101 101 97 94
64 65 66 66 67 68 67 66 65 64 64 64 65 66 67 67 67 67 68 68 69 70 70 69 69 68 67 67 66 66 66 65 63 61 59 56 53 49 50 53 54 58 66 70 68 67 67 66 66 64 61 59 58 60 63 65 65 64 63 62 59 57 58 60 63 70 75 78 80 82 85 86 87 88 89 90 90 91 93 98 102 102 99 95 94
66 68 69 70 70 70 69 68 66 65 65 65 66 68 69 68 68 68 69 70 71 71 72 72 71 70 69 68 67 66 67 66 64 62 58 53 48 50 55 57 60 66 70 69 68 68 67 67 66 60 57 58 60 62 65 66 66 64 63 64 63 63 64 63 64 69 74 77 81 84 86 88 89 89 90 91 93 96 99 102 103 100 96 93 92
67 70 71 71 71 71 71 70 68 67 66 66 67 69 69 69 70 70 71 72 73 74 74 74 73 72 71 70 68 68 68 67 65 62 59 55 53 56 59 61 64 68 68 68 69 68 67 67 64 58 57 61 64 64 65 66 67 66 67 68 68 67 66 64 64 68 72 77 82 85 88 89 90 91 93 95 98 102 103 103 100 97 94 92 91
68 71 73 74 74 74 73 72 71 70 68 68 68 69 70 72 73 74 74 75 76 77 77 77 76 76 74 72 70 69 68 67 66 64 62 61 60 61 63 64 66 67 67 68 68 67 67 66 63 60 63 66 66 65 65 66 67 69 72 73 71 67 66 66 67 71 75 80 84 87 89 91 93 95 97 100 102 103 102 99 97 95 94 92 91
70 72 75 76 77 76 76 75 74 72 71 70 70 70 71 74 75 75 75 77 78 79 79 78 78 77 76 74 72 70 68 67 66 65 64 65 65 65 66 67 67 68 69 69 68 68 67 66 65 66 66 65 64 64 65 68 71 74 76 76 72 69 69 71 72 75 79 83 87 90 92 95 97 99 100 100 101 99 97 95 95 94 93 93 92
73 75 77 79 80 79 78 77 76 74 73 72 72 72 73 75 75 75 76 77 78 79 78 78 77 77 76 75 73 71 69 68 67 67 67 67 68 68 69 69 69 70 70 69 69 69 69 67 66 65 64 63 64 67 70 73 76 77 76 74 72 72 74 76 79 81 84 87 90 92 94 96 98 98 98 97 96 95 94 94 93 93 92 92 91
76 77 79 81 82 82 81 80 78 76 75 74 74 74 75 76 76 76 77 78 78 77 76 76 76 77 76 74 72 71 70 69 69 68 69 70 70 71 71 70 70 71 71 71 70 69 69 68 66 65 66 68 71 73 74 75 74 73 72 72 72 74 76 79 82 84 86 88 90 91 92 93 93 93 93 94 94 94 93 93 93 92 91 90 89
79 79 81 83 85 85 84 82 79 78 77 77 76 76 77 77 77 77 77 77 76 75 75 75 75 75 75 73 71 70 70 69 69 69 70 71 72 72 71 71 71 71 71 72 71 71 71 71 70 71 72 73 74 74 74 74 74 73 73 73 74 75 77 79 81 83 85 86 87 88 89 89 90 91 91 92 92 92 92 92 92 91 90 89 87
82 82 84 85 87 88 86 83 80 79 78 78 77 77 77 77 77 77 76 75 74 73 74 75 75 74 73 71 70 70 69 69 69 70 71 72 72 72 72 72 72 71 72 72 73 74 74 75 75 75 75 75 74 74 74 74 74 74 75 76 77 77 77 79 80 81 83 84 86 87 88 88 89 90 90 90 91 91 90 90 90 89 88 87 85
86 86 86 88 89 89 86 82 81 80 78 77 77 77 76 75 76 76 74 72 72 73 74 74 73 72 71 70 69 69 68 68 69 71 71 72 72 72 71 71 71 72 73 74 76 77 77 77 76 75 74 74 74 74 75 75 75 76 77 77 77 77 77 78 79 81 82 84 85 86 87 88 88 89 89 89 89 89 89 88 88 87 86 84 82
86 86 88 89 88 86 84 82 81 80 78 77 76 75 74 75 75 74 72 72 73 74 73 72 71 70 69 69 69 68 68 69 70 71 71 72 71 71 70 71 72 73 75 76 77 76 76 75 74 74 74 75 75 76 76 76 76 76 77 76 76 76 77 78 80 82 83 85 86 87 87 88 88 88 88 88 87 87 86 86 86 84 82 79 77
87 89 90 89 87 86 84 82 79 78 77 76 75 74 74 74 73 72 72 73 73 72 71 70 69 68 68 68 67 67 68 69 71 71 71 70 70 70 70 71 73 75 77 77 77 76 75 74 75 76 76 77 77 78 77 76 76 75 75 75 76 76 78 81 83 84 86 87 87 87 86 87 87 86 86 86 86 85 84 83 82 80 77 74 71
89 92 93 91 89 87 84 81 79 78 78 77 76 74 73 72 71 72 72 72 71 70 69 68 68 67 67 67 66 66 68 70 70 70 69 68 68 70 71 73 74 77 79 78 76 75 75 76 77 78 79 80 80 80 78 77 76 75 76 76 77 79 81 83 85 87 88 88 87 86 85 85 85 85 84 84 84 82 81 79 77 75 71 68 65
85 87 89 88 87 85 83 80 78 77 77 76 74 72 70 69 70 70 70 69 69 69 69 68 68 67 66 66 66 66 67 69 69 68 67 67 69 71 72 74 76 79 79 78 76 75 76 77 80 81 83 84 83 81 79 78 77 77 78 78 79 81 83 85 87 89 89 88 87 85 85 84 83 82 82 81 80 79 77 74 71 68 65 61 59
79 80 78 74 73 75 76 76 76 75 75 72 69 67 67 68 69 69 69 69 69 69 68 68 68 67 66 67 67 67 68 68 68 66 66 67 70 71 73 76 79 80 79 77 76 76 77 80 82 85 86 86 85 82 81 80 79 79 80 81 82 83 85 87 90 90 89 88 86 85 84 84 82 80 78 77 75 73 70 68 65 61 58 56 53
73 72 67 61 58 60 64 66 68 69 68 66 64 65 67 68 69 69 69 69 69 68 68 67 66 67 68 68 68 69 68 67 66 66 68 70 72 72 75 79 82 82 80 78 77 77 79 82 86 89 90 89 87 84 81 81 81 81 82 83 84 85 87 89 90 90 88 86 85 84 83 82 80 78 75 72 70 67 64 61 58 56 54 52 49
66 60 57 55 54 56 58 61 62 63 63 64 65 66 67 67 67 67 67 67 68 67 66 66 67 68 69 69 68 67 66 65 66 69 71 72 74 75 79 84 86 85 82 79 76 77 82 87 91 93 93 92 89 85 82 81 81 82 82 83 84 86 87 88 88 87 86 84 83 81 79 77 76 73 70 67 65 62 59 57 54 52 49 47 45
61 54 53 56 57 57 56 56 57 58 59 61 63 63 64 65 66 66 66 66 66 66 65 66 67 68 68 67 66 64 64 66 69 71 73 74 76 79 84 88 89 86 81 77 78 82 88 93 96 97 96 94 91 87 84 83 82 81 82 83 84 85 86 86 86 85 83 82 80 77 74 71 69 66 64 62 60 58 56 53 51 48 46 44 42
60 56 54 53 52 51 51 52 54 56 58 60 61 62 64 64 64 64 64 64 64 65 65 66 67 67 66 64 62 63 66 69 71 72 74 76 79 82 87 91 91 86 81 80 84 89 94 98 100 100 98 95 92 89 87 85 83 82 82 83 83 84 84 84 82 81 79 77 75 72 68 65 62 60 58 56 54 53 50 48 46 44 42 41 39
58 55 53 52 53 55 56 57 57 57 58 59 60 61 61 61 61 62 62 63 64 65 66 67 67 65 62 60 62 65 69 71 72 74 77 79 82 85 90 94 92 86 83 84 89 94 99 102 103 101 99 96 93 91 88 86 84 83 83 83 83 83 82 81 79 76 74 71 68 65 62 60 57 55 53 51 49 47 45 43 42 41 39 38 36
58 57 58 60 62 61 58 56 55 55 56 57 57 58 58 59 61 62 62 62 63 64 65 65 63 62 61 62 65 69 71 73 75 77 79 82 85 88 92 95 92 87 85 88 93 98 102 105 105 103 100 96 94 91 88 85 84 83 83 83 82 81 79 77 74 70 67 64 61 59 56 54 52 50 48 47 45 43 42 40 39 38 37 35 33
62 64 65 65 62 58 55 53 53 52 53 55 56 57 58 59 60 61 61 60 61 62 62 62 62 62 63 65 69 72 73 75 77 79 81 84 87 90 94 95 91 87 87 91 96 101 105 107 106 103 100 97 94 90 86 84 83 82 82 81 80 78 75 72 67 64 61 58 56 54 51 49 48 46 44 43 42 40 40 38 37 36 34 32 30
68 68 67 64 60 57 53 50 48 50 54 57 59 58 58 57 57 57 57 58 59 59 60 61 62 64 66 69 72 74 75 77 79 81 84 87 89 93 95 94 90 88 89 93 98 103 107 108 107 104 100 97 93 89 85 83 82 81 81 79 77 74 70 66 62 58 55 52 50 49 47 45 44 42 41 40 38 37 37 36 35 33 32 30 28
71 69 65 61 57 53 49 48 50 54 58 60 59 57 56 56 56 56 57 58 58 59 60 62 65 67 70 72 74 76 78 79 81 83 86 89 92 95 96 93 90 89 92 96 101 105 108 108 107 104 100 96 91 87 84 83 81 80 79 76 72 68 64 60 57 53 51 48 46 44 43 42 41 40 38 37 36 35 34 33 33 31 30 28 26
69 66 62 58 53 48 46 48 52 55 56 56 56 56 55 55 55 56 56 58 59 61 64 67 69 71 73 75 77 79 81 82 84 85 88 91 95 96 95 92 91 92 95 99 103 106 108 107 106 103 99 93 89 86 83 81 80 78 75 71 66 62 59 56 53 50 48 46 44 42 41 39 37 37 36 35 34 33 32 31 30 29 28 26 24
62 59 56 53 52 50 49 50 52 53 54 55 56 55 54 53 54 56 58 61 63 66 69 71 73 75 76 78 80 82 84 85 86 88 91 94 96 96 94 93 92 94 98 102 105 107 107 106 104 101 95 90 86 84 81 79 77 74 70 65 61 57 54 52 50 48 46 44 43 41 39 37 35 34 33 32 31 31 30 29 28 28 26 24 23
60 55 52 50 50 49 48 48 49 51 53 54 55 54 53 54 57 59 61 64 66 69 72 75 76 78 79 81 83 85 86 87 89 91 94 96 96 95 94 94 95 97 101 104 106 107 106 105 102 97 91 87 84 82 79 77 74 69 64 60 56 52 50 48 47 46 44 42 40 39 37 36 35 33 31 30 29 29 28 28 27 26 25 23 21
55 51 49 49 49 50 50 50 50 51 53 55 56 56 57 59 61 63 65 68 71 73 76 78 80 81 82 84 85 87 88 89 91 92 94 95 95 95 95 95 97 100 104 105 107 107 106 104 101 95 89 84 82 80 77 74 69 64 59 55 52 50 48 45 44 43 42 40 38 37 35 35 35 33 31 29 28 27 26 26 25 24 23 22 21
47 46 46 48 50 52 54 55 56 57 58 60 61 61 62 64 66 68 71 73 75 77 80 81 82 83 84 85 86 88 89 90 91 93 94 95 96 96 95 96 100 104 105 106 107 107 106 104 99 93 87 83 80 77 74 70 64 59 55 52 49 47 45 43 42 41 40 39 37 36 34 34 34 33 31 29 27 26 25 24 24 23 22 21 20
47 46 47 48 51 54 56 58 60 63 65 66 66 66 67 68 71 73 74 76 78 80 81 82 83 84 85 86 88 89 89 90 92 93 95 96 96 96 96 99 103 106 107 107 108 107 106 103 97 90 85 82 79 75 70 65 60 55 52 49 47 45 43 41 40 39 38 37 37 36 34 33 32 32 31 29 27 25 24 23 22 21 21 20 19
52 51 50 51 53 57 59 62 64 66 69 70 70 70 71 73 76 77 78 79 81 82 83 83 84 85 86 88 89 90 91 92 94 95 96 96 96 96 98 102 106 107 107 108 108 106 104 101 94 87 83 80 76 72 66 60 55 51 49 46 44 42 41 39 37 36 36 36 36 35 35 33 31 30 29 28 26 24 23 22 21 20 20 19 18
56 56 56 56 57 60 63 66 68 69 71 73 74 75 76 78 80 81 82 83 84 83 83 84 85 86 88 89 91 92 94 95 96 97 97 96 96 98 101 104 106 107 108 108 106 105 103 98 91 85 81 78 73 68 63 57 52 48 46 44 42 40 39 37 36 35 34 35 35 35 35 34 32 30 28 27 26 24 22 21 20 19 19 18 18
58 58 59 60 62 64 66 68 70 72 74 76 78 80 81 82 83 84 85 85 83 83 84 86 87 88 89 91 93 94 96 98 98 97 97 97 99 101 104 106 107 108 107 106 104 103 101 95 88 83 80 75 70 65 59 53 49 46 44 42 40 39 37 36 35 34 34 34 34 35 35 34 32 30 28 27 26 24 22 21 20 19 18 17 17
62 62 63 64 66 68 69 71 73 75 77 79 81 83 84 85 85 86 86 84 84 85 87 88 88 90 92 93 95 97 99 99 98 97 97 99 102 105 106 107 107 108 107 105 103 102 99 92 86 81 78 73 66 60 55 50 46 44 42 40 39 38 36 35 34 34 34 34 34 34 34 34 33 31 28 27 25 24 22 21 20 19 18 17 16
66 67 67 67 69 71 73 75 77 79 81 83 84 84 85 86 86 86 85 85 86 87 88 89 91 93 94 95 97 98 98 97 97 98 100 103 105 107 107 107 108 108 106 104 103 102 97 90 84 80 75 69 63 56 51 47 44 42 40 39 38 37 36 35 34 33 33 34 34 34 33 33 33 31 29 27 25 23 22 21 20 19 18 17 16
71 71 72 73 74 77 78 80 81 83 84 85 86 86 86 86 86 86 86 87 88 89 90 92 93 94 94 94 95 96 96 97 99 102 105 106 108 108 108 108 108 108 105 103 102 100 95 87 82 78 72 66 59 53 48 44 42 40 39 38 37 36 35 35 34 34 34 33 33 33 33 32 32 31 29 27 25 24 22 21 20 19 18 17 16
76 76 77 79 80 81 82 83 84 85 86 86 87 87 87 87 88 89 90 91 92 91 91 91 92 92 93 94 95 95 97 100 103 106 108 109 109 109 109 109 108 107 104 103 101 98 92 85 80 75 69 63 56 50 45 42 41 39 38 38 37 36 35 35 35 35 34 34 33 33 32 31 31 31 30 27 26 24 22 21 19 19 18 17 17
Wind_Direction
282 285 288 290 293 295 298 299 301 303 304 306 308 310 312 313 314 314 316 317 319 321 322 323 324 326 327 328 328 329 330 330 331 331 330 329 329 326 323 322 322 322 323 323 323 323 323 324 325 326 326 324 322 322 324 325 323 321 318 315 312 309 308 307 306 306 306 307 308 309 310 311 311 311 311 312 312 313 315 316 314 317 322 322 318
281 284 286 289 291 293 295 297 299 300 302 304 306 308 310 311 311 313 314 316 318 319 320 321 323 325 326 327 327 327 329 329 330 330 329 328 327 324 322 320 320 321 321 321 322 322 323 325 326 326 325 323 321 321 322 323 321 318 316 315 313 311 310 308 307 307 307 308 309 310 309 309 309 310 311 312 312 313 315 316 317 320 322 322 319
280 282 285 288 289 290 292 294 296 298 300 302 304 306 308 309 310 312 313 315 316 318 319 320 322 324 325 325 325 326 327 329 329 329 328 327 324 322 321 319 317 318 320 320 320 320 322 325 327 326 324 322 320 319 320 321 320 317 316 316 315 313 310 308 307 307 308 310 309 308 307 306 307 308 309 311 311 312 314 316 319 323 324 322 320
279 281 284 286 287 288 289 292 294 296 298 300 302 305 306 308 309 311 312 314 315 316 317 319 321 322 323 323 324 325 326 328 328 328 327 325 321 320 320 318 315 316 319 319 319 320 323 326 326 325 322 320 319 318 318 319 318 317 317 317 316 315 312 309 308 308 307 307 306 305 304 304 305 305 306 307 308 309 312 315 319 323 325 323 320
278 280 282 284 285 286 287 290 292 294 296 299 301 303 305 307 308 310 312 313 314 315 316 318 319 320 321 322 322 323 325 326 328 327 325 322 321 320 319 317 316 317 318 319 319 320 323 326 326 324 320 317 316 315 316 318 317 317 318 318 317 316 314 311 309 307 305 305 304 303 303 302 302 303 304 305 306 307 309 313 316 321 323 323 321
277 278 280 282 283 284 286 288 291 293 296 298 301 302 304 306 307 309 311 312 312 313 315 316 317 319 320 320 321 322 323 325 327 326 322 321 321 319 318 317 316 317 317 318 318 317 320 324 325 322 318 315 314 312 314 317 317 317 319 319 317 316 315 312 309 307 304 303 303 302 302 301 301 302 303 304 305 306 308 311 314 319 322 323 321
275 276 278 281 282 283 285 287 290 292 295 298 300 302 303 305 306 308 310 311 311 312 313 315 316 317 318 319 319 321 322 325 327 324 321 321 321 319 319 318 317 317 316 315 315 315 316 319 322 320 316 313 312 310 313 316 316 317 320 318 315 313 312 311 308 305 303 301 301 301 300 300 301 302 303 304 305 306 307 309 313 318 321 322 321
275 277 279 280 281 283 284 287 289 292 295 297 299 301 303 304 305 306 308 310 310 311 312 313 314 315 316 317 318 320 322 324 326 323 320 320 321 320 319 319 318 317 314 313 314 315 316 316 318 318 315 312 310 309 312 314 315 317 320 318 314 310 309 309 307 304 301 300 300 300 299 300 301 302 302 303 304 305 306 307 311 317 321 322 321
276 277 279 280 281 282 284 286 289 292 295 297 299 301 303 304 305 305 307 309 310 310 310 311 312 313 314 316 317 319 321 322 323 321 319 319 320 320 318 318 318 315 313 314 316 316 316 315 315 317 315 312 309 309 311 312 313 317 320 318 313 310 307 306 306 303 299 298 298 299 299 300 300 301 301 302 303 305 305 306 311 317 321 321 319
276 277 278 279 281 282 284 286 289 292 295 298 299 301 302 303 304 304 305 308 309 309 309 310 311 312 314 316 316 317 318 319 320 320 319 318 318 317 317 318 319 316 314 316 317 315 315 315 315 316 316 312 309 307 308 309 310 316 320 317 312 310 308 306 304 299 295 295 297 297 298 298 299 300 300 301 303 304 305 306 312 318 320 318 316
276 277 279 280 281 283 285 287 290 293 296 298 300 300 301 302 303 303 304 307 309 308 308 309 310 312 314 315 316 316 317 318 319 319 319 317 317 317 318 318 317 314 313 316 316 315 315 315 314 314 314 312 308 306 305 305 308 314 318 316 311 310 309 305 301 296 293 294 295 296 296 297 298 299 301 302 303 304 306 310 314 317 317 315 313
276 278 280 282 283 284 286 288 291 294 296 298 299 300 300 301 302 303 303 306 307 307 307 309 310 312 313 314 315 316 317 318 319 319 318 317 317 318 318 316 314 313 314 316 316 316 315 315 314 314 313 311 309 306 305 304 307 311 315 314 310 307 306 303 298 295 293 292 293 294 296 297 298 300 301 303 305 307 310 312 312 312 312 312 310
278 280 281 282 284 286 287 289 292 294 296 297 298 299 300 300 302 302 303 304 305 305 306 308 309 311 312 314 314 315 316 317 317 317 317 317 318 319 318 315 313 313 315 316 316 316 316 316 316 315 314 312 309 307 306 305 306 309 312 312 308 304 303 302 297 294 291 290 291 293 295 297 299 300 302 303 305 306 307 306 306 308 310 310 309
279 281 282 283 285 287 288 290 292 293 295 296 297 298 299 300 300 301 302 302 303 304 305 307 308 309 310 311 312 313 314 314 315 315 316 317 318 318 315 312 310 308 310 313 315 316 316 316 316 315 313 311 309 307 306 306 307 307 309 312 310 304 302 299 294 290 289 289 291 293 295 297 298 299 300 301 302 302 303 303 304 307 308 309 307
279 280 281 283 285 286 287 288 290 292 293 295 296 297 298 298 299 299 300 301 301 302 304 305 306 307 308 308 310 311 312 312 312 313 315 318 319 314 307 305 303 303 307 312 314 315 316 316 316 314 312 309 306 305 306 306 306 307 310 313 311 305 301 297 291 289 290 291 293 294 295 296 297 297 298 300 301 302 303 303 305 306 307 307 306
277 278 280 282 283 284 285 286 288 289 291 293 294 295 296 297 297 298 299 300 300 302 303 303 304 305 306 307 309 311 311 311 311 312 314 317 314 306 301 301 301 304 309 312 313 314 314 314 315 312 307 304 303 303 304 304 303 305 309 311 308 305 303 299 294 292 292 292 292 293 294 295 297 298 299 300 301 301 303 304 305 305 306 305 304
275 277 279 280 281 282 283 284 286 287 289 290 292 293 294 294 295 297 299 299 300 301 302 303 303 304 306 307 309 310 310 310 310 311 312 312 308 304 303 303 305 307 310 311 312 313 313 314 314 310 303 301 302 303 302 302 303 304 305 307 307 306 304 300 296 293 291 290 290 292 294 296 297 298 299 299 299 301 303 304 304 304 304 304 304
275 276 278 279 280 281 282 283 284 286 287 289 290 290 291 292 294 296 298 299 299 300 301 302 304 305 306 308 310 311 311 310 310 311 312 311 310 309 308 308 309 310 310 311 311 312 312 313 311 307 303 302 302 303 303 303 303 303 304 306 307 305 302 298 294 291 290 290 291 292 294 295 296 296 297 298 299 301 302 302 303 303 303 303 304
274 275 276 278 279 279 280 282 283 285 286 287 288 289 290 291 293 296 297 298 299 300 301 303 304 306 307 308 310 311 311 310 310 311 312 311 311 311 310 311 311 311 310 311 311 311 311 311 309 306 304 304 303 303 303 302 302 303 304 306 306 303 300 297 294 292 291 291 292 293 294 295 295 296 298 299 300 301 301 301 302 302 303 303 304
273 274 275 276 277 278 279 280 282 284 285 286 287 289 290 291 293 295 296 297 298 299 301 303 305 306 307 309 311 311 310 309 310 311 311 311 311 311 312 312 311 311 311 311 311 311 310 310 309 306 305 304 303 302 302 302 302 304 305 306 304 301 299 297 296 295 294 294 294 295 295 296 297 298 299 299 300 300 300 301 302 302 303 303 303
272 273 273 274 275 276 277 279 281 283 284 285 287 289 289 290 292 293 294 295 297 299 301 302 303 304 306 308 310 310 309 309 310 311 311 310 311 312 312 312 311 311 312 311 311 311 311 310 309 306 305 304 303 303 302 302 303 304 304 304 303 301 299 298 297 297 296 296 296 296 296 297 298 298 299 299 299 300 301 301 302 302 303 303 303
271 271 271 272 273 275 276 278 280 282 283 285 287 287 288 290 291 292 293 295 296 298 300 300 302 303 306 308 308 307 307 309 310 310 310 310 311 312 311 311 311 311 311 311 312 311 311 310 309 307 306 306 305 304 303 303 302 302 303 304 303 302 301 299 298 297 297 297 297 297 297 298 298 298 299 299 300 301 301 302 302 303 303 303 304
269 269 270 271 273 274 276 278 280 281 282 284 285 286 288 289 290 291 293 295 296 297 298 299 301 303 305 306 306 306 307 308 308 308 309 310 310 310 310 311 312 312 312 312 312 312 311 311 310 309 308 307 307 306 305 305 305 305 305 305 305 303 302 300 299 298 298 298 298 298 299 299 299 300 300 300 301 301 302 302 303 303 304 304 304
268 269 270 270 271 273 275 278 279 280 281 283 284 286 287 288 289 291 292 293 294 295 297 299 301 303 303 304 304 305 306 306 306 306 307 308 309 309 310 312 312 312 312 312 313 313 313 312 312 311 310 310 309 309 309 309 309 308 307 306 305 304 303 302 301 300 300 300 300 300 301 301 301 301 301 301 301 302 302 303 303 303 304 304 304
267 267 268 268 270 272 275 276 278 280 281 282 283 284 285 286 288 289 290 291 292 294 297 299 300 301 302 303 303 304 304 304 304 305 306 307 308 309 311 311 311 311 313 315 315 314 313 313 312 313 313 313 313 312 311 311 310 308 306 305 305 305 305 305 304 304 304 303 303 303 303 302 302 301 301 302 302 303 303 303 303 304 304 304 304
265 265 267 268 270 272 274 275 277 279 279 280 281 283 284 286 287 288 288 290 292 295 297 298 299 300 301 301 301 302 302 302 302 304 305 306 308 309 310 310 310 313 315 316 315 313 312 312 313 314 315 315 315 313 312 311 309 308 307 306 306 307 308 307 307 307 306 305 304 304 303 303 302 302 302 303 303 303 303 303 303 304 305 305 304
264 265 266 268 269 271 272 274 275 276 277 279 280 282 284 285 285 286 288 291 293 295 296 296 297 298 298 299 299 299 299 300 301 303 304 306 307 308 308 309 312 315 316 315 313 311 310 311 313 315 316 317 316 315 313 312 310 309 308 308 308 309 309 308 308 308 306 305 305 305 304 303 303 303 304 304 304 304 304 304 304 305 305 305 304
266 266 267 269 270 271 271 272 273 274 276 278 280 282 283 284 285 287 290 292 293 293 294 294 295 296 296 296 297 297 298 299 300 302 304 305 306 307 309 311 315 316 315 313 311 310 310 312 315 317 318 319 319 317 315 313 312 310 309 309 308 308 308 308 308 308 307 306 306 305 305 304 304 304 304 304 304 304 304 304 304 305 304 304 304
266 267 269 273 274 272 271 271 272 274 275 277 279 280 282 283 286 288 290 291 291 291 292 293 294 294 294 295 296 296 297 298 299 301 303 305 306 308 310 313 316 316 314 312 310 310 311 314 317 319 321 321 320 318 316 314 312 311 310 309 308 308 309 309 309 308 307 307 307 306 306 305 305 305 304 304 304 304 304 304 304 304 304 304 304
265 268 271 274 275 272 271 270 271 272 274 276 278 280 282 284 286 288 288 288 288 289 290 291 292 292 293 294 295 295 296 297 299 301 304 306 308 310 312 314 315 314 313 311 310 310 313 316 319 320 321 321 320 318 316 314 313 312 310 309 309 309 309 309 308 308 308 308 307 307 307 306 306 306 305 305 305 304 305 305 305 305 305 304 303
264 269 270 271 272 272 272 272 272 273 275 277 278 280 281 283 284 284 285 285 286 287 289 290 291 293 293 294 294 295 296 298 301 304 307 309 310 311 313 315 315 314 313 312 312 313 316 319 321 321 321 321 320 318 316 314 313 312 310 310 309 309 309 308 308 308 308 308 307 307 307 306 306 306 306 306 306 306 306 306 306 305 304 303 302
260 266 268 270 272 274 274 275 276 277 278 278 278 279 280 281 281 282 282 282 284 286 288 290 292 292 292 293 294 295 297 300 303 306 308 309 311 312 314 316 316 314 313 313 315 317 320 321 322 322 322 321 319 317 316 314 313 312 310 309 309 309 308 308 308 308 308 308 307 307 307 306 306 306 307 307 307 306 306 305 305 304 303 302 301
257 263 267 270 273 275 278 279 280 280 279 279 279 279 279 279 280 280 280 282 284 286 289 291 292 292 291 292 293 296 299 302 305 307 308 309 310 312 314 316 316 314 314 316 318 321 321 322 322 322 322 320 319 317 316 315 313 312 311 310 309 309 309 308 309 309 308 308 308 308 308 308 307 307 307 306 305 305 304 303 302 302 301 300 299
256 261 265 270 276 280 282 283 282 281 280 280 279 278 278 278 279 280 281 284 286 288 289 290 290 290 289 291 294 298 302 304 305 306 307 309 310 312 313 315 315 314 315 318 320 321 321 322 322 322 321 320 318 317 316 315 314 313 312 311 311 310 309 310 310 309 309 308 308 308 308 308 308 308 307 306 305 304 303 302 301 300 299 298 297
254 260 267 275 281 283 283 282 281 280 279 278 277 276 277 278 279 281 283 284 286 287 288 289 288 288 289 292 297 301 303 303 304 305 307 309 310 311 313 315 315 314 316 318 320 320 320 321 321 321 320 319 318 317 316 315 314 313 313 312 311 311 310 310 310 310 310 309 309 309 309 310 309 308 307 306 305 304 303 302 301 299 298 297 295
256 265 273 280 283 283 282 282 281 279 277 276 276 276 277 279 281 283 285 285 286 286 287 288 288 290 292 295 299 301 301 302 303 305 308 310 310 311 313 314 314 314 316 317 318 319 320 320 320 320 320 319 318 317 316 315 315 314 313 312 312 312 312 312 311 311 311 311 311 311 311 310 309 308 307 305 304 303 302 301 299 298 296 295 292
263 271 277 280 281 282 282 280 277 274 273 274 276 277 279 281 283 284 284 285 286 287 287 288 290 291 293 295 297 299 300 301 303 306 309 310 310 311 313 313 313 313 315 316 317 318 319 320 320 320 320 319 318 317 316 316 315 315 314 314 313 313 313 313 312 312 312 312 312 312 311 309 308 306 304 303 302 301 301 299 298 297 295 293 290
268 273 277 278 279 280 279 275 271 270 272 274 275 277 279 281 282 282 282 284 286 286 286 288 289 291 292 294 296 298 300 302 305 307 308 309 310 311 312 312 312 312 314 315 316 318 319 320 320 320 320 319 318 317 317 317 316 315 315 314 314 313 313 313 313 313 313 312 312 311 310 308 307 305 304 303 302 301 301 299 297 296 293 291 288
269 272 275 275 274 274 272 270 269 271 273 274 275 277 280 281 281 282 284 285 285 285 286 287 288 290 292 294 296 298 300 303 305 307 308 309 310 311 311 311 311 312 313 314 316 318 320 320 320 320 320 318 317 317 317 317 316 316 315 314 314 314 314 313 313 314 313 313 312 311 309 308 307 305 304 303 303 302 301 299 298 296 293 291 287
268 270 271 270 269 268 268 269 271 274 276 277 277 279 280 279 280 282 283 284 284 285 286 287 288 290 292 294 296 299 301 303 305 306 307 309 310 310 310 310 310 311 312 314 317 319 320 320 320 320 319 318 317 317 317 317 316 316 315 314 314 314 314 314 314 314 314 313 312 312 311 309 308 307 306 304 303 303 302 300 298 295 293 291 287
265 265 265 264 264 266 268 271 273 275 276 276 277 277 277 277 278 280 281 283 285 287 287 288 289 291 294 296 297 299 301 303 305 306 307 309 309 309 309 309 309 310 312 315 318 319 320 320 320 319 318 317 317 317 317 316 316 315 314 313 313 313 313 313 313 312 313 312 312 313 313 312 311 311 309 307 306 304 303 301 298 295 292 290 287
260 259 258 259 259 261 264 268 271 273 275 277 277 278 278 278 278 280 283 286 288 288 288 289 291 293 294 296 297 299 302 303 305 306 308 309 309 309 308 308 308 310 313 316 318 319 319 320 320 319 318 317 317 317 317 316 315 314 313 313 312 312 312 312 312 312 312 313 314 315 316 315 314 314 312 310 307 306 304 302 298 295 291 289 286
252 253 255 257 259 262 265 268 270 274 277 279 280 281 281 281 282 283 284 286 286 287 287 289 291 292 293 295 298 300 302 303 305 307 308 308 308 307 306 306 308 310 313 317 319 319 319 320 320 319 318 317 317 317 316 315 314 313 312 311 311 311 311 312 312 313 313 314 316 317 318 318 316 315 313 310 308 306 305 302 298 294 291 288 285
247 251 256 261 264 266 268 270 272 275 278 280 281 282 282 283 283 282 282 283 284 285 286 289 291 292 294 297 299 300 302 304 306 307 307 307 306 305 305 306 308 311 314 317 318 319 319 320 320 318 317 317 317 317 316 314 313 312 311 310 310 311 311 312 313 314 315 316 317 318 319 319 317 315 313 310 307 306 304 302 297 294 290 287 284
251 254 259 262 264 266 267 269 271 274 277 279 280 281 282 282 281 280 280 281 282 284 287 289 292 294 297 298 300 301 303 304 305 306 305 305 304 304 305 307 309 312 315 317 318 318 319 319 319 318 317 317 317 316 315 313 311 310 309 309 310 310 310 311 312 313 315 316 317 318 319 319 318 316 313 310 307 305 304 301 298 294 290 287 284
256 258 261 264 266 267 268 269 271 273 275 277 278 279 279 279 279 279 279 280 282 285 288 290 293 296 298 299 300 301 302 303 304 304 303 303 303 304 306 308 310 312 314 316 317 318 318 319 318 317 317 317 316 315 314 312 310 309 308 308 309 309 309 310 312 314 315 317 317 318 318 318 318 317 314 311 308 305 304 302 299 294 291 288 285
259 260 262 264 265 267 268 269 271 273 274 275 276 276 276 277 277 278 279 281 284 287 289 291 294 296 297 299 300 301 301 302 302 301 301 301 302 304 306 308 309 312 314 316 316 317 318 318 317 317 317 317 316 314 312 310 308 307 307 307 307 307 308 310 312 314 316 317 317 316 316 316 316 317 315 312 309 306 303 302 299 295 292 289 285
257 257 258 260 262 264 265 267 269 270 271 272 273 274 275 275 276 277 279 282 285 287 290 292 294 296 297 298 299 300 300 299 299 299 299 301 303 305 306 307 309 312 314 315 316 317 318 318 317 317 317 316 315 312 310 307 306 306 305 305 305 306 308 310 312 314 316 316 315 314 314 314 314 315 315 313 309 305 302 301 299 295 292 289 285
255 257 258 259 260 262 264 265 267 268 269 271 272 273 273 275 276 278 281 283 285 287 290 292 294 295 296 297 298 297 297 297 297 298 300 302 303 304 306 307 310 312 314 315 316 317 318 317 317 317 317 315 313 310 307 305 304 304 303 304 305 306 307 310 312 313 314 313 312 312 312 311 312 313 314 313 310 306 301 299 297 294 292 288 284
258 259 260 261 262 263 264 265 266 267 268 269 270 271 273 275 277 280 282 283 285 288 290 292 292 293 294 295 295 295 295 296 297 299 300 301 303 304 305 307 310 312 313 314 315 317 317 317 316 316 316 314 311 307 305 303 302 302 302 303 304 306 308 310 311 311 312 311 310 309 309 309 309 310 311 311 310 306 301 297 295 292 290 286 282
259 260 261 262 263 264 264 265 265 266 267 269 270 272 274 276 278 281 282 284 286 288 289 290 290 291 291 292 292 292 294 296 297 298 299 301 302 304 305 308 310 312 312 314 315 316 316 316 316 316 315 312 308 305 303 301 301 300 301 303 304 306 308 308 308 308 309 308 307 307 307 307 307 308 308 308 308 306 302 297 292 289 287 284 280
Height
10971 10970 10969 10968 10968 10967 10967 10966 10966 10965 10963 10963 10962 10961 10961 10960 10959 10958 10956 10955 10953 10952 10951 10949 10947 10945 10942 10941 10939 10937 10935 10932 10930 10927 10923 10920 10918 10915 10912 10910 10907 10904 10902 10900 10897 10895 10891 10888 10885 10882 10879 10876 10874 10871 10869 10866 10863 10860 10858 10856 10853 10851 10848 10845 10843 10842 10841 10839 10838 10836 10835 10833 10831 10830 10828 10826 10823 10819 10817 10815 10812 10808 10804 10799 10795
10966 10965 10964 10964 10964 10963 10963 10962 10961 10961 10960 10959 10959 10958 10957 10956 10955 10954 10953 10951 10949 10948 10946 10945 10943 10941 10939 10937 10935 10933 10931 10929 10926 10923 10920 10916 10912 10909 10907 10905 10903 10900 10897 10895 10893 10890 10886 10883 10880 10877 10874 10872 10869 10867 10864 10861 10859 10856 10854 10851 10848 10845 10842 10839 10837 10835 10834 10833 10831 10829 10827 10826 10824 10823 10821 10819 10817 10813 10809 10807 10805 10802 10797 10793 10789
10961 10961 10960 10959 10959 10959 10959 10958 10957 10957 10956 10955 10955 10954 10954 10952 10951 10949 10949 10948 10946 10944 10942 10940 10939 10937 10936 10934 10931 10929 10927 10925 10922 10919 10915 10912 10907 10903 10901 10899 10897 10895 10893 10890 10887 10885 10882 10878 10875 10872 10869 10867 10864 10862 10859 10857 10854 10852 10849 10846 10843 10840 10836 10833 10831 10829 10827 10825 10824 10822 10820 10818 10816 10815 10813 10811 10809 10807 10804 10800 10796 10793 10789 10785 10781
10957 10956 10956 10955 10954 10954 10954 10954 10953 10953 10952 10952 10951 10951 10950 10949 10947 10945 10944 10943 10942 10941 10939 10937 10935 10934 10932 10930 10928 10925 10923 10921 10918 10914 10910 10905 10901 10897 10894 10892 10891 10890 10888 10885 10882 10880 10877 10874 10870 10867 10864 10861 10859 10856 10853 10851 10848 10845 10842 10839 10837 10833 10830 10828 10825 10823 10820 10819 10817 10816 10813 10811 10809 10807 10805 10803 10801 10799 10797 10794 10789 10785 10781 10778 10774
10952 10952 10951 10950 10950 10949 10949 10949 10949 10949 10948 10948 10947 10946 10946 10945 10944 10942 10939 10938 10937 10936 10935 10933 10931 10930 10928 10926 10924 10922 10920 10917 10914 10909 10904 10900 10895 10892 10888 10885 10883 10882 10881 10879 10876 10874 10871 10869 10866 10863 10860 10857 10854 10850 10847 10845 10842 10839 10836 10833 10830 10827 10824 10822 10819 10817 10815 10812 10810 10808 10806 10804 10801 10799 10798 10795 10792 10789 10788 10786 10783 10779 10775 10771 10766
10947 10947 10947 10946 10945 10944 10944 10944 10944 10944 10944 10944 10943 10942 10941 10941 10940 10939 10936 10934 10932 10931 10931 10930 10928 10926 10924 10922 10920 10918 10915 10914 10910 10904 10898 10894 10891 10887 10883 10880 10877 10875 10874 10872 10870 10868 10866 10863 10861 10858 10855 10851 10848 10845 10842 10839 10835 10832 10829 10826 10823 10819 10817 10815 10813 10811 10809 10805 10802 10800 10798 10796 10792 10790 10789 10787 10784 10781 10778 10776 10773 10771 10768 10764 10759
10941 10942 10942 10941 10940 10940 10939 10940 10940 10940 10940 10939 10939 10938 10936 10936 10935 10935 10934 10931 10928 10926 10925 10925 10923 10922 10920 10918 10915 10913 10910 10909 10906 10899 10892 10889 10887 10883 10879 10876 10872 10869 10867 10865 10864 10862 10860 10858 10855 10852 10849 10845 10842 10838 10835 10832 10829 10825 10822 10819 10816 10813 10810 10808 10806 10804 10801 10798 10795 10792 10789 10786 10784 10781 10779 10778 10775 10772 10770 10768 10764 10760 10758 10755 10750
10936 10936 10936 10936 10935 10935 10935 10935 10935 10935 10936 10935 10935 10934 10932 10931 10930 10930 10930 10928 10925 10921 10920 10919 10918 10917 10916 10913 10910 10908 10905 10904 10902 10895 10887 10884 10882 10878 10875 10872 10868 10865 10862 10859 10858 10856 10853 10851 10849 10846 10842 10838 10834 10830 10828 10826 10823 10818 10815 10812 10809 10806 10804 10801 10799 10796 10793 10790 10787 10784 10780 10777 10775 10773 10770 10768 10766 10764 10761 10759 10755 10750 10746 10741 10737
10931 10930 10931 10931 10930 10930 10930 10930 10930 10931 10932 10931 10931 10930 10928 10926 10924 10924 10925 10924 10922 10919 10915 10914 10914 10913 10911 10909 10906 10903 10902 10901 10899 10893 10884 10879 10877 10874 10870 10868 10865 10861 10857 10854 10852 10850 10847 10844 10841 10838 10835 10831 10827 10822 10819 10817 10816 10812 10809 10805 10802 10799 10797 10794 10792 10789 10786 10782 10778 10775 10772 10769 10766 10765 10762 10759 10758 10756 10752 10749 10746 10740 10735 10730 10725
10926 10925 10925 10925 10925 10925 10925 10926 10926 10927 10927 10927 10927 10926 10925 10923 10920 10918 10918 10918 10917 10914 10911 10908 10907 10907 10906 10904 10901 10899 10898 10898 10896 10890 10883 10877 10874 10870 10867 10865 10862 10858 10853 10850 10847 10844 10841 10837 10834 10830 10827 10823 10819 10815 10811 10809 10808 10806 10803 10800 10796 10793 10790 10787 10784 10782 10778 10773 10769 10766 10763 10760 10757 10755 10752 10750 10748 10746 10742 10739 10734 10728 10723 10720 10716
10921 10919 10919 10919 10920 10920 10920 10921 10922 10922 10922 10922 10922 10921 10920 10919 10917 10914 10912 10911 10910 10907 10904 10901 10899 10898 10898 10896 10894 10892 10892 10891 10889 10885 10880 10874 10870 10867 10864 10861 10858 10854 10849 10846 10842 10839 10835 10832 10828 10824 10820 10817 10814 10809 10805 10802 10800 10798 10795 10793 10790 10787 10784 10781 10778 10775 10770 10765 10761 10757 10753 10751 10748 10744 10742 10739 10737 10734 10730 10726 10721 10716 10713 10711 10708
10915 10914 10913 10913 10914 10914 10915 10916 10917 10917 10917 10916 10916 10916 10915 10914 10912 10910 10907 10905 10904 10901 10898 10895 10892 10889 10888 10887 10886 10884 10883 10883 10882 10879 10875 10870 10866 10863 10859 10855 10852 10848 10845 10841 10837 10833 10830 10826 10822 10818 10815 10811 10808 10804 10799 10795 10793 10790 10788 10785 10782 10779 10777 10775 10772 10768 10762 10758 10754 10749 10745 10743 10739 10734 10731 10729 10724 10720 10717 10714 10711 10709 10706 10703 10699
10909 10908 10907 10907 10907 10908 10909 10910 10911 10912 10911 10910 10909 10909 10909 10908 10907 10905 10902 10900 10898 10895 10892 10891 10887 10884 10882 10880 10878 10877 10876 10876 10875 10873 10870 10866 10861 10857 10853 10848 10845 10842 10838 10835 10831 10827 10823 10818 10814 10810 10807 10804 10801 10797 10792 10788 10785 10783 10781 10777 10773 10770 10768 10767 10765 10760 10755 10750 10746 10742 10737 10735 10732 10726 10722 10719 10716 10711 10709 10706 10703 10700 10697 10691 10686
10903 10902 10901 10902 10902 10902 10903 10904 10905 10905 10905 10904 10902 10901 10900 10900 10899 10898 10896 10894 10891 10888 10886 10885 10883 10881 10878 10876 10874 10872 10870 10869 10869 10867 10865 10862 10856 10851 10846 10841 10838 10836 10832 10829 10826 10822 10816 10811 10806 10802 10799 10796 10793 10788 10784 10780 10777 10775 10773 10769 10764 10761 10758 10757 10755 10751 10745 10741 10738 10734 10729 10725 10723 10718 10713 10710 10708 10704 10701 10697 10692 10688 10684 10679 10672
10898 10896 10895 10896 10897 10896 10896 10897 10899 10899 10899 10897 10896 10894 10892 10892 10891 10890 10888 10886 10883 10881 10880 10879 10878 10877 10875 10873 10871 10868 10864 10862 10861 10859 10859 10858 10853 10846 10841 10836 10832 10830 10826 10822 10819 10815 10810 10804 10799 10795 10790 10787 10783 10779 10775 10772 10768 10765 10763 10759 10755 10753 10750 10747 10744 10740 10734 10731 10727 10724 10719 10715 10712 10709 10705 10700 10697 10693 10690 10685 10679 10675 10672 10666 10658
10893 10891 10890 10890 10890 10890 10890 10890 10892 10893 10892 10891 10889 10886 10884 10883 10882 10881 10880 10878 10875 10873 10872 10872 10871 10871 10870 10868 10865 10862 10857 10854 10853 10851 10852 10854 10851 10844 10839 10834 10829 10824 10821 10816 10812 10808 10803 10798 10793 10788 10783 10779 10776 10773 10768 10765 10761 10759 10755 10752 10748 10745 10741 10738 10735 10731 10726 10722 10717 10712 10708 10704 10701 10698 10694 10690 10686 10682 10679 10673 10666 10662 10659 10654 10646
10887 10885 10883 10883 10882 10882 10882 10883 10884 10885 10886 10885 10883 10880 10877 10875 10873 10873 10872 10869 10866 10864 10863 10863 10863 10863 10862 10861 10859 10854 10849 10845 10844 10843 10844 10845 10843 10838 10833 10830 10825 10819 10815 10810 10805 10800 10796 10790 10786 10781 10776 10772 10770 10768 10763 10758 10754 10751 10748 10744 10740 10736 10732 10729 10726 10722 10717 10713 10708 10703 10698 10694 10690 10687 10683 10679 10674 10670 10666 10660 10654 10650 10646 10642 10636
10881 10878 10876 10874 10874 10874 10874 10875 10876 10877 10878 10878 10876 10873 10871 10867 10865 10864 10863 10860 10857 10854 10853 10853 10852 10851 10851 10851 10850 10846 10840 10835 10833 10833 10833 10832 10830 10828 10824 10820 10816 10812 10808 10803 10798 10793 10789 10784 10779 10774 10769 10765 10763 10760 10755 10750 10747 10743 10740 10736 10731 10727 10724 10721 10718 10714 10709 10703 10698 10694 10690 10685 10681 10678 10673 10669 10663 10658 10653 10648 10642 10637 10632 10628 10624
10874 10871 10867 10865 10864 10864 10865 10865 10867 10868 10870 10869 10867 10866 10863 10860 10857 10857 10855 10852 10848 10845 10844 10842 10841 10840 10839 10839 10839 10836 10831 10826 10824 10824 10822 10820 10818 10816 10813 10810 10806 10801 10798 10794 10789 10785 10781 10778 10773 10767 10762 10758 10755 10751 10747 10743 10739 10735 10731 10727 10723 10719 10716 10713 10710 10705 10700 10694 10689 10685 10680 10675 10671 10666 10662 10657 10651 10645 10640 10635 10630 10624 10619 10614 10610
10865 10863 10859 10856 10855 10855 10855 10856 10857 10859 10860 10859 10858 10857 10854 10851 10849 10849 10846 10843 10840 10838 10836 10834 10832 10830 10828 10828 10827 10824 10820 10817 10816 10815 10813 10810 10808 10805 10803 10800 10796 10791 10788 10784 10780 10776 10772 10769 10765 10759 10754 10751 10747 10744 10740 10736 10732 10727 10723 10719 10715 10711 10707 10703 10699 10694 10690 10685 10681 10676 10671 10664 10659 10653 10649 10644 10638 10633 10629 10623 10618 10613 10607 10602 10597
10855 10854 10851 10847 10844 10845 10846 10847 10849 10850 10850 10850 10850 10848 10845 10842 10841 10840 10838 10835 10833 10831 10829 10827 10825 10822 10820 10819 10817 10814 10810 10808 10807 10806 10804 10801 10798 10795 10792 10789 10786 10782 10778 10775 10771 10768 10763 10760 10757 10752 10747 10744 10740 10736 10732 10727 10723 10719 10715 10711 10707 10703 10698 10693 10688 10683 10679 10674 10669 10665 10660 10654 10648 10642 10637 10631 10626 10621 10616 10611 10605 10601 10596 10591 10586
10845 10844 10841 10837 10835 10835 10835 10838 10841 10842 10842 10842 10841 10839 10836 10834 10833 10831 10829 10827 10825 10824 10822 10820 10818 10816 10813 10812 10809 10805 10802 10800 10799 10797 10794 10792 10790 10786 10783 10780 10777 10773 10769 10765 10761 10758 10754 10750 10747 10743 10739 10735 10731 10727 10723 10718 10714 10710 10706 10701 10697 10692 10688 10683 10678 10672 10667 10662 10657 10652 10647 10643 10637 10631 10625 10620 10614 10608 10604 10598 10592 10587 10582 10578 10573
10834 10834 10832 10828 10826 10824 10826 10830 10833 10834 10834 10834 10833 10831 10829 10827 10824 10822 10822 10820 10818 10816 10814 10812 10811 10809 10807 10805 10801 10798 10795 10794 10791 10788 10786 10784 10781 10778 10774 10770 10767 10763 10759 10755 10751 10747 10744 10740 10736 10733 10729 10725 10721 10717 10712 10708 10704 10699 10694 10689 10685 10680 10676 10671 10666 10661 10655 10650 10645 10640 10635 10630 10625 10619 10613 10608 10602 10597 10592 10586 10580 10574 10570 10565 10560
10825 10825 10823 10819 10816 10816 10819 10823 10824 10825 10827 10826 10825 10824 10822 10819 10816 10815 10814 10813 10811 10809 10807 10806 10804 10803 10800 10797 10793 10790 10789 10787 10784 10781 10778 10776 10773 10769 10765 10761 10758 10754 10750 10746 10743 10739 10735 10731 10727 10724 10720 10716 10711 10706 10702 10697 10692 10687 10682 10677 10673 10669 10664 10658 10653 10648 10643 10638 10633 10627 10623 10617 10612 10606 10601 10595 10590 10585 10579 10574 10568 10563 10558 10553 10547
10816 10814 10811 10809 10809 10810 10813 10815 10816 10817 10819 10819 10817 10816 10814 10812 10810 10808 10807 10805 10804 10802 10801 10800 10798 10796 10793 10789 10786 10784 10782 10779 10776 10773 10771 10767 10764 10761 10757 10754 10750 10747 10743 10739 10735 10731 10727 10723 10719 10715 10711 10707 10702 10696 10691 10687 10682 10677 10672 10667 10662 10658 10652 10646 10641 10636 10631 10626 10620 10615 10611 10605 10599 10594 10588 10583 10578 10573 10567 10562 10556 10551 10547 10542 10536
10804 10801 10799 10801 10804 10806 10807 10810 10810 10809 10808 10809 10809 10808 10807 10805 10804 10802 10799 10798 10798 10797 10795 10793 10791 10789 10786 10783 10780 10778 10775 10771 10768 10766 10764 10760 10757 10753 10751 10747 10743 10739 10735 10731 10727 10723 10719 10715 10711 10707 10703 10698 10693 10687 10682 10678 10673 10667 10661 10656 10652 10647 10641 10635 10629 10624 10619 10613 10608 10604 10599 10593 10587 10581 10576 10570 10565 10561 10556 10550 10544 10539 10535 10531 10525
10793 10792 10792 10794 10797 10799 10801 10804 10804 10801 10800 10800 10801 10801 10800 10798 10796 10794 10792 10792 10791 10790 10788 10786 10784 10782 10779 10776 10775 10773 10769 10765 10762 10760 10757 10754 10751 10748 10745 10741 10737 10733 10728 10724 10720 10716 10712 10707 10703 10699 10694 10689 10684 10678 10672 10666 10661 10656 10651 10646 10641 10636 10630 10624 10618 10612 10606 10601 10596 10592 10586 10580 10574 10569 10563 10558 10553 10548 10544 10539 10534 10529 10525 10520 10516
10785 10784 10785 10787 10790 10793 10795 10795 10794 10793 10793 10794 10794 10794 10792 10789 10787 10786 10786 10786 10784 10782 10781 10779 10777 10775 10773 10770 10768 10766 10763 10759 10756 10754 10752 10749 10745 10742 10739 10735 10731 10727 10722 10717 10713 10708 10704 10699 10694 10689 10684 10679 10674 10667 10661 10655 10651 10646 10641 10637 10632 10626 10620 10614 10607 10600 10593 10588 10583 10579 10572 10566 10562 10558 10553 10547 10542 10537 10532 10528 10524 10520 10516 10512 10508
10776 10778 10780 10782 10784 10785 10786 10785 10785 10785 10786 10787 10787 10786 10783 10781 10780 10780 10779 10778 10775 10774 10773 10772 10770 10768 10766 10763 10761 10759 10757 10754 10750 10748 10746 10743 10740 10736 10732 10728 10724 10720 10715 10710 10705 10700 10695 10690 10686 10680 10675 10671 10665 10659 10653 10647 10641 10636 10631 10625 10619 10613 10608 10601 10593 10585 10579 10574 10570 10564 10558 10552 10548 10545 10541 10536 10531 10527 10523 10519 10515 10511 10508 10504 10501
10772 10774 10777 10778 10777 10776 10776 10776 10777 10778 10779 10780 10780 10778 10775 10774 10773 10772 10771 10769 10767 10766 10765 10764 10763 10761 10759 10757 10754 10751 10749 10747 10744 10741 10739 10736 10732 10729 10725 10721 10717 10713 10708 10703 10698 10692 10687 10681 10677 10672 10667 10662 10657 10651 10644 10637 10631 10625 10618 10612 10606 10601 10595 10588 10580 10572 10567 10562 10557 10552 10546 10540 10535 10531 10528 10524 10520 10517 10513 10509 10506 10503 10500 10496 10493
10769 10771 10771 10770 10769 10768 10768 10769 10770 10771 10772 10772 10771 10769 10768 10767 10766 10764 10763 10761 10759 10758 10758 10757 10756 10754 10752 10749 10746 10743 10741 10739 10736 10733 10730 10726 10723 10720 10716 10713 10709 10704 10699 10694 10689 10684 10678 10672 10667 10662 10657 10651 10645 10640 10634 10628 10622 10615 10608 10602 10597 10591 10584 10577 10569 10562 10557 10552 10547 10543 10538 10532 10526 10521 10517 10513 10509 10506 10503 10500 10497 10495 10493 10490 10487
10765 10764 10763 10762 10761 10761 10762 10763 10763 10764 10764 10763 10761 10760 10759 10758 10757 10757 10755 10754 10753 10751 10750 10750 10748 10746 10744 10741 10739 10736 10733 10731 10728 10725 10721 10717 10714 10710 10707 10703 10699 10694 10690 10685 10679 10674 10668 10663 10657 10652 10646 10639 10633 10628 10623 10619 10614 10608 10601 10594 10589 10582 10574 10566 10559 10553 10547 10541 10536 10532 10528 10523 10518 10513 10508 10504 10501 10497 10495 10492 10490 10488 10486 10484 10482
10757 10756 10755 10754 10755 10755 10756 10756 10755 10755 10754 10753 10752 10751 10750 10749 10749 10749 10748 10747 10746 10744 10743 10742 10741 10738 10736 10734 10732 10729 10726 10723 10720 10717 10714 10710 10706 10702 10698 10694 10690 10685 10680 10675 10669 10663 10657 10652 10648 10642 10636 10629 10622 10616 10611 10607 10603 10597 10590 10584 10578 10571 10563 10556 10550 10545 10538 10531 10526 10521 10517 10513 10510 10506 10502 10498 10495 10491 10489 10487 10485 10483 10481 10478 10477
10749 10748 10747 10747 10748 10748 10748 10748 10747 10746 10745 10744 10744 10743 10742 10742 10742 10742 10741 10740 10738 10737 10736 10735 10733 10731 10729 10727 10725 10722 10719 10716 10713 10710 10706 10702 10699 10695 10691 10686 10682 10677 10671 10666 10659 10653 10647 10642 10637 10632 10626 10619 10612 10606 10600 10595 10590 10584 10578 10571 10565 10558 10552 10546 10541 10535 10529 10523 10518 10513 10509 10505 10502 10498 10495 10492 10489 10486 10484 10482 10480 10478 10476 10474 10472
10742 10740 10740 10739 10739 10739 10740 10741 10740 10739 10738 10737 10737 10736 10736 10736 10736 10735 10735 10734 10731 10730 10729 10727 10726 10724 10722 10720 10717 10715 10712 10709 10706 10702 10698 10695 10691 10687 10683 10679 10674 10668 10663 10657 10651 10644 10638 10633 10628 10622 10616 10609 10602 10595 10590 10584 10578 10572 10566 10559 10553 10547 10541 10536 10531 10526 10520 10515 10510 10506 10502 10498 10495 10491 10488 10486 10483 10481 10479 10477 10475 10473 10471 10469 10468
10735 10733 10732 10730 10730 10731 10733 10734 10733 10733 10732 10731 10731 10730 10729 10729 10728 10728 10727 10726 10724 10723 10722 10720 10718 10716 10714 10712 10710 10707 10705 10702 10698 10694 10691 10687 10683 10679 10675 10671 10666 10661 10656 10650 10644 10637 10630 10624 10618 10613 10606 10599 10591 10585 10579 10574 10567 10561 10555 10548 10542 10536 10531 10526 10522 10517 10512 10507 10503 10499 10496 10492 10489 10486 10483 10481 10478 10476 10474 10472 10470 10469 10467 10465 10464
10727 10725 10724 10722 10722 10724 10726 10727 10728 10728 10726 10725 10723 10723 10722 10721 10721 10720 10719 10718 10717 10716 10714 10712 10710 10708 10706 10704 10702 10700 10697 10694 10690 10687 10683 10679 10676 10672 10668 10664 10659 10654 10650 10644 10638 10631 10623 10615 10607 10602 10597 10589 10580 10574 10569 10563 10557 10551 10544 10538 10532 10526 10521 10517 10513 10509 10505 10501 10498 10494 10491 10488 10485 10482 10479 10477 10474 10472 10470 10468 10466 10465 10463 10461 10460
10719 10719 10718 10717 10717 10718 10720 10721 10721 10721 10720 10718 10716 10716 10715 10714 10713 10713 10712 10711 10710 10709 10706 10704 10702 10700 10698 10696 10694 10692 10689 10686 10683 10680 10676 10672 10668 10664 10660 10656 10652 10648 10643 10637 10631 10623 10615 10606 10597 10590 10585 10578 10570 10564 10559 10553 10547 10541 10535 10529 10523 10518 10514 10509 10506 10503 10500 10496 10494 10490 10487 10484 10481 10477 10475 10472 10470 10468 10466 10464 10462 10460 10459 10458 10457
10713 10713 10712 10711 10711 10711 10712 10713 10713 10713 10712 10711 10710 10709 10709 10708 10706 10705 10705 10705 10704 10701 10699 10697 10694 10692 10690 10688 10686 10683 10680 10677 10675 10672 10668 10664 10659 10655 10651 10648 10644 10639 10634 10629 10622 10615 10607 10598 10588 10580 10573 10567 10560 10555 10550 10544 10538 10532 10527 10521 10516 10512 10507 10503 10500 10497 10494 10491 10488 10486 10483 10479 10476 10473 10471 10468 10466 10464 10462 10460 10458 10456 10455 10455 10454
10706 10706 10706 10705 10705 10705 10706 10706 10706 10705 10704 10703 10703 10703 10703 10702 10700 10699 10698 10698 10697 10694 10691 10688 10686 10684 10683 10680 10677 10675 10672 10669 10666 10663 10659 10655 10650 10645 10641 10637 10633 10629 10625 10620 10613 10607 10599 10592 10583 10574 10566 10559 10553 10547 10542 10536 10531 10525 10520 10515 10510 10507 10502 10498 10494 10491 10489 10486 10483 10480 10477 10474 10472 10469 10467 10464 10462 10460 10458 10456 10455 10453 10452 10451 10451
10699 10700 10700 10699 10699 10699 10699 10699 10699 10698 10698 10697 10696 10697 10697 10696 10694 10692 10691 10690 10689 10686 10682 10679 10677 10677 10675 10672 10669 10666 10664 10661 10658 10654 10650 10645 10640 10635 10631 10627 10622 10619 10615 10610 10604 10597 10591 10584 10577 10569 10560 10553 10546 10540 10535 10529 10524 10519 10514 10509 10505 10502 10498 10495 10491 10488 10485 10482 10479 10476 10472 10469 10467 10465 10463 10460 10458 10457 10455 10453 10451 10450 10449 10448 10447
10694 10694 10694 10693 10693 10693 10692 10692 10691 10691 10690 10689 10689 10690 10691 10689 10687 10686 10685 10683 10680 10677 10673 10670 10670 10669 10667 10663 10660 10658 10655 10652 10649 10645 10641 10636 10631 10626 10622 10617 10612 10608 10605 10601 10594 10587 10580 10574 10567 10559 10551 10546 10540 10534 10527 10522 10517 10513 10508 10504 10500 10497 10494 10491 10488 10484 10481 10478 10475 10472 10468 10465 10462 10460 10458 10457 10455 10453 10451 10450 10448 10447 10446 10445 10444
10687 10687 10687 10687 10686 10686 10685 10684 10683 10682 10681 10681 10682 10683 10683 10682 10680 10680 10678 10676 10672 10668 10664 10662 10662 10661 10658 10655 10652 10649 10647 10644 10640 10636 10631 10627 10623 10618 10613 10608 10603 10599 10596 10592 10585 10577 10570 10564 10557 10549 10542 10537 10532 10527 10521 10516 10511 10506 10503 10499 10495 10492 10489 10486 10483 10480 10476 10473 10470 10467 10464 10462 10459 10457 10455 10453 10452 10450 10448 10447 10445 10444 10443 10442 10441
10678 10679 10680 10679 10678 10677 10676 10676 10676 10675 10673 10673 10673 10673 10674 10673 10672 10672 10671 10668 10664 10659 10656 10655 10653 10650 10648 10646 10643 10640 10637 10635 10631 10627 10623 10618 10614 10610 10605 10599 10593 10588 10585 10581 10575 10568 10562 10556 10549 10541 10534 10529 10524 10520 10515 10510 10505 10501 10497 10494 10490 10487 10484 10481 10478 10475 10472 10469 10466 10463 10460 10458 10456 10454 10452 10450 10448 10447 10445 10444 10442 10441 10440 10439 10438
10670 10671 10672 10671 10670 10669 10669 10669 10669 10668 10666 10665 10664 10665 10665 10665 10663 10662 10661 10659 10655 10651 10648 10646 10644 10641 10637 10634 10631 10628 10626 10624 10622 10618 10614 10610 10606 10602 10597 10592 10585 10581 10577 10572 10566 10560 10554 10548 10541 10534 10528 10522 10517 10513 10508 10504 10500 10495 10492 10489 10486 10483 10480 10478 10475 10471 10468 10465 10462 10460 10457 10455 10453 10451 10449 10447 10445 10444 10442 10441 10439 10438 10437 10436 10436
10661 10663 10663 10663 10662 10662 10662 10661 10661 10660 10659 10657 10657 10657 10656 10655 10654 10652 10651 10649 10647 10643 10640 10637 10635 10632 10628 10624 10620 10618 10616 10614 10612 10609 10605 10602 10598 10594 10590 10585 10579 10575 10571 10567 10560 10553 10547 10541 10534 10527 10521 10515 10510 10505 10501 10498 10495 10491 10487 10484 10481 10478 10476 10474 10471 10468 10465 10462 10459 10456 10454 10452 10450 10448 10446 10444 10442 10441 10439 10438 10437 10436 10435 10434 10433
10653 10654 10655 10654 10654 10653 10653 10652 10652 10652 10650 10650 10650 10648 10647 10646 10644 10642 10640 10640 10638 10635 10630 10628 10626 10624 10620 10616 10612 10609 10606 10604 10602 10599 10596 10592 10589 10585 10581 10577 10572 10567 10563 10559 10553 10546 10540 10534 10527 10520 10514 10509 10504 10499 10495 10492 10489 10486 10482 10480 10477 10474 10472 10469 10467 10464 10461 10458 10456 10453 10451 10449 10447 10445 10443 10441 10439 10438 10436 10435 10434 10433 10432 10431 10431
10644 10645 10646 10645 10645 10645 10644 10644 10644 10644 10642 10642 10641 10639 10637 10636 10634 10631 10630 10630 10629 10626 10622 10619 10617 10614 10610 10607 10603 10599 10596 10593 10591 10588 10586 10583 10580 10576 10572 10568 10563 10558 10554 10549 10543 10537 10532 10526 10519 10513 10508 10502 10498 10494 10490 10486 10483 10481 10478 10475 10473 10470 10467 10465 10463 10460 10458 10455 10453 10450 10448 10446 10444 10442 10440 10438 10436 10435 10433 10432 10431 10430 10429 10429 10428
10634 10635 10635 10635 10636 10636 10635 10635 10635 10635 10633 10632 10631 10630 10628 10626 10624 10622 10620 10619 10618 10616 10614 10611 10608 10604 10602 10598 10593 10589 10586 10583 10580 10577 10575 10573 10571 10567 10563 10559 10554 10549 10545 10540 10534 10528 10523 10518 10512 10506 10501 10496 10492 10489 10485 10482 10479 10476 10473 10471 10468 10466 10463 10461 10459 10457 10455 10452 10450 10448 10445 10443 10440 10439 10437 10435 10433 10432 10431 10429 10428 10427 10426 10426 10426
10625 10626 10626 10626 10627 10627 10626 10626 10626 10624 10623 10622 10621 10620 10619 10616 10614 10612 10611 10609 10607 10606 10605 10602 10599 10596 10593 10590 10586 10581 10576 10573 10570 10567 10564 10562 10560 10557 10554 10550 10545 10540 10536 10532 10527 10520 10515 10510 10504 10499 10494 10490 10486 10483 10480 10477 10474 10471 10469 10466 10464 10462 10459 10457 10455 10453 10452 10450 10447 10445 10443 10440 10438 10436 10434 10432 10431 10429 10428 10427 10426 10424 10424 10423 10423
10616 10617 10617 10617 10617 10617 10617 10617 10615 10613 10613 10613 10612 10610 10609 10606 10604 10602 10600 10598 10597 10595 10593 10591 10589 10586 10584 10581 10578 10574 10569 10565 10562 10558 10555 10552 10549 10546 10544 10541 10537 10531 10527 10524 10519 10512 10506 10502 10497 10492 10487 10483 10480 10477 10475 10472 10469 10467 10464 10462 10459 10457 10455 10453 10451 10450 10448 10447 10444 10442 10440 10437 10435 10432 10431 10429 10428 10426 10425 10424 10423 10422 10421 10420 10420